Wind_Speed
9 10 9 1 2 5 1 2 11 9 5 2 7 9 10 10 1 4 17 18 25 23 20 18 16 15 15 16 15 14 14 14 14 14 16 16 16 15 15 16 15 14 14 13 13 12 12 12 13
9 5 4 1 4 5 3 3 9 9 11 15 11 7 10 5 6 14 16 26 25 25 22 19 17 16 15 15 14 14 14 14 14 14 15 14 13 13 14 14 13 12 13 12 11 10 11 10 11
14 6 3 3 2 3 4 2 10 14 9 3 7 10 4 6 15 16 23 27 27 25 22 19 17 15 15 14 14 15 14 15 14 14 15 13 14 13 14 13 13 12 11 10 9 9 9 9 9
7 6 3 3 2 2 6 4 14 12 8 9 13 8 6 15 7 21 32 29 27 25 22 19 17 15 15 16 15 15 14 15 14 12 13 12 12 13 13 13 12 11 10 9 8 8 8 8 8
8 2 2 2 4 4 2 11 10 9 10 14 9 8 5 10 31 35 32 27 29 26 22 20 18 16 15 15 16 15 14 15 14 12 11 10 11 11 11 10 10 9 7 6 6 6 8 9 8
4 2 3 2 3 3 4 12 13 15 16 17 15 12 4 27 31 30 31 27 24 26 23 20 18 16 15 15 16 15 14 13 13 10 10 10 10 11 10 10 9 7 6 4 4 5 7 6 6
5 2 2 3 4 3 5 4 14 17 18 9 14 9 8 21 30 30 30 25 24 23 22 21 18 16 15 15 15 14 14 13 11 9 10 11 11 12 12 11 9 6 4 2 1 3 4 4 3
4 3 3 4 2 6 2 5 15 20 9 15 16 6 12 20 29 28 27 24 23 22 20 19 18 18 17 14 14 14 14 13 12 12 12 11 11 10 8 7 5 3 0 2 4 3 2 2 3
3 3 3 4 6 8 12 12 15 10 16 9 5 12 17 33 31 27 25 22 21 21 21 18 18 18 17 15 13 13 11 11 11 12 12 10 10 9 8 5 3 1 3 4 6 4 4 5 6
2 1 5 3 2 5 16 18 11 9 10 13 17 11 18 31 30 27 23 20 22 24 22 20 18 18 18 15 15 15 15 15 14 11 9 7 8 6 4 4 2 2 5 7 8 7 6 5 11
2 4 3 6 6 7 13 14 8 18 13 22 20 16 12 17 26 26 26 28 31 28 23 21 18 17 19 18 17 18 16 15 11 8 7 6 9 8 5 6 3 1 9 5 10 7 7 5 6
3 9 9 8 11 10 10 10 9 14 10 20 21 19 15 9 18 24 24 27 24 29 24 22 20 18 20 22 22 19 16 15 12 10 11 7 11 11 10 9 5 2 12 3 6 11 6 6 7
3 7 6 7 6 4 13 5 7 13 20 18 18 17 15 12 14 22 28 29 30 29 26 25 23 22 20 21 20 18 16 14 14 13 12 14 16 12 7 7 5 6 9 11 9 5 6 7 9
5 11 11 7 6 10 10 3 8 16 20 18 18 15 13 12 15 17 23 26 27 34 29 29 25 22 23 19 16 14 14 14 13 12 15 11 12 10 10 6 7 7 6 8 6 8 5 5 7
10 9 4 4 7 4 10 5 10 18 19 19 16 14 13 11 17 23 30 29 29 35 29 32 31 24 22 17 17 20 16 19 16 13 17 14 11 10 8 9 16 2 5 8 15 13 7 7 9
4 4 4 4 7 3 7 4 4 19 19 17 17 15 14 10 21 25 32 33 35 34 30 30 29 25 23 17 13 21 18 17 17 16 16 17 18 15 15 14 14 8 3 3 7 10 6 3 3
5 1 2 6 3 3 4 3 6 12 17 16 15 14 12 7 16 27 35 37 41 37 34 30 26 24 22 14 13 13 9 14 14 17 14 12 15 15 14 14 10 7 6 7 5 4 1 3 5
3 2 1 4 1 13 4 1 7 5 8 8 12 13 12 11 14 25 28 38 40 37 33 29 25 23 25 17 13 11 7 7 12 12 10 18 15 12 12 15 14 12 12 8 2 1 3 4 5
6 3 5 5 6 2 5 4 3 6 8 7 9 6 7 9 15 28 29 37 38 37 32 30 27 24 25 21 15 13 10 6 5 7 8 11 20 18 15 14 13 12 11 5 6 4 5 5 6
3 4 5 4 4 4 14 7 1 5 5 6 6 3 2 5 12 19 26 31 35 39 34 34 33 30 26 22 17 14 11 1 2 7 6 14 17 16 12 11 10 8 7 6 6 5 6 5 4
9 4 4 4 3 12 5 6 4 3 9 11 10 8 5 3 9 15 22 29 32 35 37 38 35 35 30 23 17 15 11 5 4 6 15 19 17 13 11 8 7 5 6 7 5 4 5 5 1
1 9 13 9 4 3 2 4 7 9 5 8 14 10 7 6 10 10 20 27 31 36 39 37 34 35 36 30 26 21 15 9 9 10 13 14 15 13 11 7 8 8 8 7 5 4 3 6 7
9 10 1 3 4 6 5 3 7 5 5 10 10 3 4 5 6 10 20 35 34 32 37 40 38 32 35 29 26 20 15 17 16 12 13 15 15 15 9 8 6 7 8 6 6 4 6 7 7
2 4 3 3 3 3 5 4 4 5 6 5 7 10 11 12 12 15 31 28 32 35 34 30 35 33 32 31 26 21 17 19 18 17 15 12 10 10 14 12 10 7 3 5 4 7 7 9 10
6 4 2 3 1 6 2 5 9 5 3 13 14 10 9 10 14 12 14 16 25 34 34 31 27 27 30 30 26 20 19 17 14 12 10 13 12 10 6 8 10 8 8 9 8 9 11 12 14
2 6 5 6 5 3 2 6 6 4 7 11 15 13 17 19 28 18 17 31 28 28 30 25 27 24 27 27 24 20 16 13 10 8 8 7 8 7 6 8 8 10 11 13 11 11 13 13 14
3 5 8 3 2 3 5 4 4 2 3 8 8 11 9 4 5 6 8 9 12 24 26 31 32 28 25 23 18 15 14 13 10 9 10 10 9 9 8 8 8 10 11 10 8 7 7 5 4
6 1 4 3 2 4 3 3 5 9 8 2 3 13 14 8 8 7 12 15 18 18 25 28 30 31 26 22 20 16 13 13 13 13 13 14 12 10 8 7 7 7 7 7 5 5 5 7 9
5 4 2 2 5 5 2 5 6 11 11 14 8 10 10 10 7 7 12 17 18 22 23 25 24 25 24 19 16 16 16 15 12 15 15 15 12 10 10 9 8 6 6 5 4 6 6 5 6
5 5 5 4 8 2 4 5 7 7 10 13 11 12 8 8 6 7 12 13 15 17 19 19 19 17 14 12 14 16 15 14 15 14 12 11 10 8 8 8 6 4 4 5 6 6 4 3 2
Wind_Direction
355 319 327 314 16 84 59 112 112 97 58 28 74 102 112 29 57 169 146 163 148 145 146 146 143 140 135 131 126 123 116 110 104 105 103 104 105 106 106 108 109 111 108 107 104 104 107 115 116
30 349 84 30 68 93 347 88 91 105 126 103 82 80 49 76 69 116 119 152 148 147 148 146 146 140 135 133 130 126 120 115 114 112 110 109 109 109 111 108 107 109 110 106 107 104 102 107 115
68 62 36 42 304 129 132 207 112 129 158 132 113 85 72 97 121 135 151 150 148 148 148 145 144 141 138 132 131 128 125 122 120 117 112 114 110 108 110 112 113 112 111 110 105 102 104 110 112
139 19 12 35 199 173 146 143 111 102 98 86 108 72 86 136 117 146 151 150 147 149 148 147 144 143 140 141 138 132 129 123 120 116 116 120 114 115 115 119 121 124 123 118 111 96 97 100 99
68 57 99 299 282 106 99 132 131 111 82 90 103 119 86 111 137 145 151 151 148 150 150 150 150 146 141 140 138 134 133 125 125 128 131 128 126 125 125 123 122 123 119 115 111 106 85 81 83
57 29 36 341 274 122 159 148 120 102 103 104 101 116 85 138 140 149 154 155 153 150 151 151 151 146 146 145 141 140 139 135 134 139 136 134 134 132 131 130 131 132 129 123 100 80 74 72 67
105 50 244 243 158 139 162 168 130 128 130 127 132 117 138 149 151 154 155 151 153 151 151 150 148 149 151 153 150 144 140 137 145 143 146 143 142 142 140 138 139 141 141 127 81 48 45 33 7
109 139 270 239 236 91 272 184 140 145 135 129 132 154 163 164 154 148 149 144 151 153 154 153 155 156 154 157 149 148 144 156 156 151 147 142 139 134 131 132 131 128 9 318 311 324 341 347 295
126 49 281 233 137 119 115 114 160 139 134 155 215 138 144 156 151 139 142 148 154 157 155 153 160 165 162 160 158 154 157 157 152 145 142 139 134 124 133 133 108 2 305 303 296 295 308 302 271
91 164 252 124 55 101 129 133 145 128 144 109 114 128 144 143 143 144 153 164 162 161 163 156 155 165 168 162 160 158 155 146 134 127 126 125 109 110 109 93 64 300 323 300 297 296 309 268 257
167 226 233 214 164 174 138 153 129 130 144 148 148 150 155 138 154 155 167 171 173 166 162 167 152 159 161 157 151 147 148 146 141 134 117 139 155 145 129 130 130 341 7 300 308 294 306 306 262
265 241 250 96 233 176 158 154 151 147 166 154 149 151 158 166 163 166 173 178 176 173 169 169 160 155 163 153 149 149 151 152 150 132 127 126 139 153 158 122 100 235 338 278 292 314 316 324 322
224 280 298 116 125 101 105 46 153 122 140 146 146 152 169 179 185 172 171 178 169 169 175 174 169 162 171 172 166 165 155 160 155 157 169 146 151 162 203 208 207 297 270 280 299 352 20 357 336
214 258 273 151 141 101 105 101 106 139 143 150 155 167 182 186 190 182 172 181 164 172 179 179 175 178 177 177 179 184 180 172 174 169 167 136 139 141 159 175 190 164 243 261 272 305 300 299 331
310 290 122 155 142 128 110 35 123 149 151 155 165 176 194 206 177 167 174 176 165 167 173 181 178 190 190 181 201 208 205 184 174 171 153 152 159 163 143 180 175 161 224 246 262 269 281 246 329
359 50 8 337 24 72 76 237 123 157 156 166 174 182 197 212 169 165 167 168 163 158 159 164 171 177 181 172 168 176 174 181 188 184 184 179 167 171 167 163 186 221 251 289 260 229 219 159 303
344 240 273 311 131 197 85 208 233 172 167 171 177 189 199 190 162 166 164 165 164 169 167 169 178 183 190 179 183 166 159 191 187 197 207 198 181 169 159 165 173 183 153 146 144 147 144 8 328
291 189 162 248 220 1 345 319 314 31 37 185 188 193 205 165 167 167 165 168 171 175 178 182 189 195 195 197 187 183 185 189 205 209 203 217 198 182 161 148 148 161 170 175 160 20 315 302 301
287 278 181 221 358 343 236 217 274 127 73 4 330 250 225 179 170 167 165 171 175 178 179 182 181 187 199 205 198 191 199 213 221 246 222 209 199 194 192 171 173 185 206 216 236 239 262 284 311
237 232 248 7 75 108 25 342 343 46 161 189 236 182 188 340 170 170 164 170 175 179 185 186 190 189 194 199 198 201 207 208 322 269 236 191 198 194 198 207 204 191 217 227 233 231 221 236 332
259 242 200 140 19 70 42 309 328 252 232 215 213 199 170 200 201 177 171 173 177 183 188 189 195 195 194 195 194 203 202 172 157 126 155 161 170 172 180 208 232 211 222 209 201 209 203 211 311
329 249 257 123 96 150 134 273 243 224 248 272 240 210 214 98 7 224 174 177 183 189 190 190 193 198 197 194 198 197 202 154 142 146 157 160 178 179 187 196 208 211 193 168 150 156 160 183 187
231 347 359 149 188 133 211 158 262 44 270 247 254 308 9 54 346 269 206 186 188 186 192 194 198 194 194 193 198 199 177 169 167 169 176 182 179 191 228 240 224 159 124 113 128 106 105 112 130
70 4 329 63 77 328 231 128 255 205 216 121 43 28 14 351 316 270 225 186 186 189 193 202 199 195 191 191 197 200 190 187 198 208 212 202 209 207 208 220 220 210 223 178 142 127 129 122 100
172 114 31 337 120 224 148 116 252 169 143 132 117 99 95 27 312 303 226 197 191 189 193 199 197 186 194 195 199 201 204 203 201 200 214 220 209 217 237 234 204 207 177 156 150 132 121 124 113
48 140 171 206 218 235 337 227 254 102 136 131 142 137 137 122 237 287 260 212 200 189 193 183 181 177 182 185 189 183 173 169 157 161 188 196 197 187 167 163 154 142 141 142 140 127 109 106 99
143 177 191 210 12 111 202 279 281 146 155 115 145 137 124 156 276 327 17 85 127 175 180 176 171 167 162 167 161 153 145 140 151 160 169 178 164 163 154 147 146 152 154 148 142 141 137 121 100
200 352 355 15 259 274 264 262 235 197 165 94 234 113 118 105 77 58 53 61 68 97 135 147 153 157 157 157 153 149 143 144 150 153 152 150 163 168 165 164 159 163 173 173 172 167 128 98 95
6 15 284 140 145 215 202 251 322 186 167 154 147 103 102 103 81 63 68 69 76 89 100 115 129 137 137 138 146 145 145 143 145 144 151 155 153 149 150 152 148 157 164 166 152 145 144 117 97
148 165 118 96 308 293 178 286 344 127 141 140 131 119 105 92 76 91 89 86 84 88 102 107 122 128 125 141 152 153 149 146 148 147 150 145 142 145 155 156 162 183 201 186 153 136 136 132 138
Height
779 776 777 778 799 798 803 792 770 781 786 776 770 780 791 791 795 823 803 808 811 814 817 818 819 820 820 821 823 825 826 827 828 829 830 831 833 834 835 836 838 838 840 840 841 840 839 838 840
776 769 774 780 806 817 812 783 790 780 778 772 775 781 788 803 791 800 806 810 811 814 816 819 820 821 822 823 825 827 828 829 830 832 832 834 836 837 839 840 842 842 842 843 843 843 843 843 843
774 771 784 796 803 817 813 783 781 777 775 770 783 782 790 804 798 802 805 809 811 814 817 819 821 823 824 825 827 829 829 831 833 834 835 837 839 840 842 843 844 844 844 845 845 846 846 846 846
779 783 791 808 799 783 785 782 774 777 776 772 778 795 792 794 797 800 805 809 811 815 817 819 822 824 825 827 829 830 831 833 835 836 837 839 840 842 844 845 846 846 845 846 846 848 848 849 849
785 794 810 811 797 780 775 770 772 781 782 783 780 800 798 798 799 802 807 810 811 814 817 820 822 825 827 828 830 832 833 835 837 838 840 842 843 845 847 849 849 849 849 849 850 849 851 852 852
795 796 816 820 798 777 773 764 772 778 783 787 791 796 803 800 802 805 807 811 813 815 818 820 823 826 828 829 831 833 835 838 839 840 841 843 844 846 849 851 851 851 851 851 852 854 855 853 853
799 808 815 806 796 791 780 762 776 783 787 790 785 804 806 803 803 806 809 812 814 816 819 822 824 826 828 829 831 834 837 840 841 842 841 842 844 846 848 850 851 852 853 854 854 856 856 854 853
794 805 808 796 798 790 773 766 775 777 786 783 784 803 810 802 805 809 812 814 815 818 820 822 824 825 828 830 834 836 839 839 839 839 840 842 845 848 851 852 853 854 855 855 855 857 859 856 853
788 809 812 792 788 786 765 774 774 772 782 783 782 787 792 799 806 811 814 817 818 820 821 822 823 825 827 831 834 837 839 839 840 840 842 844 847 849 849 851 853 853 853 853 852 853 857 858 854
797 812 797 773 771 777 769 769 774 784 793 793 791 793 795 801 805 810 814 816 819 820 821 821 823 824 828 831 834 836 837 839 841 844 846 847 849 849 850 852 853 852 853 852 852 851 851 854 852
793 802 776 771 769 764 769 771 765 784 799 788 794 795 797 801 805 808 811 812 814 818 820 822 823 825 827 830 834 836 838 841 843 845 847 846 847 848 849 851 850 852 852 851 850 850 851 853 852
800 775 771 765 766 763 773 763 772 774 782 780 783 788 793 797 802 805 809 811 815 819 820 822 824 825 827 830 833 835 838 841 843 845 845 845 846 848 849 850 849 849 849 849 849 849 849 849 850
795 772 760 758 758 761 760 773 771 778 778 783 786 790 793 795 798 801 805 809 813 817 820 822 824 826 828 831 833 835 838 841 842 843 844 844 846 847 847 848 846 848 847 849 848 848 849 848 847
778 777 765 763 765 763 773 775 773 783 780 786 788 791 792 794 797 801 804 807 811 815 819 822 824 826 828 831 833 835 837 842 843 844 844 845 846 846 845 844 847 848 849 849 849 849 849 848 847
773 779 768 767 766 772 766 787 788 779 781 786 788 789 790 790 794 796 800 805 808 813 817 822 824 826 829 831 832 832 836 840 842 842 844 845 845 846 846 847 848 849 852 852 852 850 848 848 847
789 791 818 780 772 771 777 812 783 777 781 786 785 784 786 788 789 793 797 803 807 812 817 821 824 827 829 830 831 833 835 838 839 841 842 843 844 845 845 847 848 850 852 850 850 850 848 847 844
807 819 819 799 775 781 786 805 783 775 778 785 785 784 784 787 790 792 795 799 804 808 813 819 822 825 827 830 832 833 835 837 839 841 842 843 845 844 844 845 845 849 851 852 850 848 847 845 845
824 816 812 808 783 778 797 795 787 790 791 788 786 783 782 783 787 792 795 798 802 807 811 817 821 823 825 827 830 831 832 835 838 840 841 842 844 844 844 843 844 845 848 850 850 848 847 844 841
805 804 808 792 780 795 796 798 797 793 791 798 794 787 785 783 781 786 793 797 800 805 809 814 819 822 825 826 827 830 831 832 834 835 836 836 839 841 842 843 843 842 842 842 843 843 844 844 841
806 810 809 801 790 791 805 809 802 794 788 791 791 787 787 788 785 786 789 793 796 800 804 810 815 819 824 827 828 830 831 831 831 830 831 833 837 840 842 843 842 841 840 840 839 839 840 840 839
802 808 806 805 799 801 814 815 810 795 788 776 775 776 777 783 786 784 785 788 793 796 800 803 808 814 820 825 827 829 831 831 830 830 829 831 836 839 841 842 841 839 838 836 836 837 837 838 837
819 781 784 800 813 832 818 842 816 799 793 785 775 775 774 782 788 788 781 785 787 790 796 800 804 808 814 818 823 825 827 828 829 829 829 829 832 834 835 835 833 832 832 834 835 836 835 835 835
798 784 790 797 813 822 821 837 808 799 800 787 779 781 780 783 784 786 780 774 780 786 792 795 800 806 812 818 822 822 824 824 824 825 825 827 829 828 828 830 834 832 834 835 834 834 836 835 835
779 789 803 807 824 844 810 817 812 808 786 783 784 780 778 778 778 778 778 774 778 782 789 797 799 804 809 813 817 819 820 821 820 821 823 826 826 825 824 824 827 830 831 830 833 832 834 836 835
791 806 836 837 843 841 816 822 799 789 779 778 787 787 785 782 777 778 776 780 779 779 782 793 801 804 807 809 812 814 815 816 818 820 820 821 823 823 822 823 826 827 829 830 834 834 835 836 836
786 797 827 839 839 829 814 826 793 776 778 777 779 779 773 767 773 776 779 773 775 778 786 789 797 804 804 806 809 809 814 816 817 818 819 821 821 824 825 826 828 829 831 833 836 837 837 839 839
792 805 774 802 804 828 821 800 785 782 789 785 790 788 781 781 787 783 775 770 768 774 780 781 788 798 805 806 809 808 813 815 817 816 817 821 823 826 829 830 830 833 835 836 837 839 839 839 840
771 763 796 806 821 821 816 802 800 793 792 790 794 788 786 791 790 787 783 781 777 778 779 783 789 797 801 803 807 811 814 813 816 818 821 823 826 826 829 831 832 834 836 837 837 838 839 840 841
782 793 787 795 813 826 824 806 768 774 777 787 791 785 787 788 792 790 790 788 787 786 788 790 796 801 803 806 811 813 815 816 819 820 824 825 828 828 830 832 833 835 836 838 838 838 839 839 839
762 778 795 823 817 817 819 808 775 771 772 780 788 786 788 788 790 791 790 792 795 797 799 803 806 806 807 812 816 818 817 817 820 822 827 827 829 830 832 833 834 836 836 837 838 839 840 840 842